User: anonymous   Login
Location: Unspecified
(0.0000°N, 0.0000°E)
Time: 21:32:08
(UTC+02:00)
Language:

ARIANE 5 R/B - Orbit

View from above orbital plane
View from above orbital plane
View from above satellite
View from above satellite

Ground track
Ground track

The orbit data is extracted from the following two-line orbital elements,

1 27387U 02009B   17115.88057766 -.00000005 +00000-0 +13114-4 0  9990
2 27387 098.4594 066.3020 0031347 295.9884 063.8074 14.35926611793991
Epoch (UTC): 25 April 2017 21:08:01
Eccentricity: 0.0031347
inclination: 98.4594°
perigee height: 749 km
apogee height: 794 km
right ascension of ascending node: 66.3020°
argument of perigee: 295.9884°
revolutions per day: 14.35926611
mean anomaly at epoch: 63.8074°
orbit number at epoch: 79399

The dashed part of the orbit path shows where the satellite is in the earth's shadow,  

DLR